TimeMDT,TemperatureF,Dew PointF,Humidity,Sea Level PressureIn,VisibilityMPH,Wind Direction,Wind SpeedMPH,Gust SpeedMPH,PrecipitationIn,Events,Conditions,WindDirDegrees,DateUTC
12:53 AM,46.9,23.0,39,29.91,10.0,Calm,Calm,-,N/A,,Clear,0,2012-05-22 06:53:00
1:53 AM,45.0,24.1,44,29.91,10.0,ENE,6.9,-,N/A,,Clear,60,2012-05-22 07:53:00
3:53 AM,44.1,24.1,45,29.88,10.0,ENE,4.6,-,N/A,,Clear,60,2012-05-22 09:53:00
4:53 AM,39.9,25.0,55,29.91,10.0,ENE,4.6,-,N/A,,Clear,60,2012-05-22 10:53:00
5:53 AM,41.0,26.1,55,29.90,10.0,East,5.8,-,N/A,,Clear,90,2012-05-22 11:53:00
6:53 AM,46.0,30.0,54,29.91,10.0,SE,5.8,-,N/A,,Clear,130,2012-05-22 12:53:00
7:53 AM,55.9,28.0,34,29.89,10.0,Calm,Calm,-,N/A,,Clear,0,2012-05-22 13:53:00
8:53 AM,64.0,28.9,27,29.90,10.0,Calm,Calm,-,N/A,,Clear,0,2012-05-22 14:53:00
9:53 AM,73.0,25.0,17,29.89,10.0,Calm,Calm,-,N/A,,Clear,0,2012-05-22 15:53:00
10:53 AM,81.0,18.0,10,29.86,10.0,South,13.8,-,N/A,,Clear,190,2012-05-22 16:53:00
11:53 AM,82.0,18.0,9,29.86,10.0,WNW,11.5,20.7,N/A,,Clear,290,2012-05-22 17:53:00
12:53 PM,86.0,16.0,7,29.83,10.0,SW,15.0,25.3,N/A,,Clear,230,2012-05-22 18:53:00
1:02 PM,84.2,15.8,8,30.05,10.0,WSW,15.0,-,N/A,,Clear,240,2012-05-22 19:02:00
1:53 PM,86.0,15.1,7,29.81,10.0,SW,16.1,25.3,N/A,,Clear,230,2012-05-22 19:53:00
2:53 PM,87.1,15.1,7,29.78,10.0,WSW,19.6,31.1,N/A,,Clear,240,2012-05-22 20:53:00
3:53 PM,86.0,12.9,7,29.75,10.0,SW,19.6,26.5,N/A,,Clear,220,2012-05-22 21:53:00
4:53 PM,88.0,9.0,5,29.72,10.0,West,18.4,25.3,N/A,,Clear,260,2012-05-22 22:53:00
5:53 PM,86.0,10.9,6,29.70,10.0,WSW,15.0,23.0,N/A,,Clear,240,2012-05-22 23:53:00
6:53 PM,84.0,10.9,6,29.66,10.0,SW,12.7,23.0,N/A,,Clear,220,2012-05-23 00:53:00
7:53 PM,80.1,14.0,8,29.63,10.0,SW,10.4,-,N/A,,Clear,230,2012-05-23 01:53:00
8:53 PM,69.1,18.0,14,29.63,10.0,South,11.5,-,N/A,,Clear,190,2012-05-23 02:53:00
9:53 PM,60.1,18.0,20,29.63,10.0,ENE,5.8,-,N/A,,Clear,60,2012-05-23 03:53:00
10:53 PM,57.0,21.9,26,29.63,10.0,Variable,5.8,-,N/A,,Clear,0,2012-05-23 04:53:00
11:53 PM,73.0,8.1,8,29.56,10.0,SW,16.1,-,N/A,,Clear,230,2012-05-23 05:53:00